Location: Stilling
(56.0622°N, 9.9882°E)
Time: 00:09:38
(UTC+00:00)

Sich 1 - Pass Details

Date: 13 July 2020
Orbit: 595 x 624 km, 82.5° (Epoch: 03 August)

Event Time Altitude Azimuth Distance (km) Brightness Sun altitude
Exits shadow 23:33:33 18° 189° (S) 1,488 4.4 -12.3°
Maximum altitude 23:36:42 87° 101° (E) 621 3.0 -12.3°
Drops below altitude 10° 23:41:07 10° 13° (NNE) 1,991 7.1 -12.2°
Sets 23:43:22 0° 13° (NNE) 2,906 8.5 -12.2°
